Location: Carbonear
(47.7333°N, 53.2500°W)
Time: 01:43:15
(UTC+00:00)

XW-2F - Pass Details

Date: 03 December 2022
Orbit: 471 x 485 km, 97.5° (Epoch: 08 February)

Event Time Altitude Azimuth Distance (km) Brightness Sun altitude
Rises 20:38:31 0° 151° (SSE) 2,525 ? -9.2°
Reaches altitude 10° 20:40:37 10° 146° (SE) 1,647 ? -9.5°
Maximum altitude 20:44:00 46° 72° (ENE) 654 ? -10.0°
Drops below altitude 10° 20:47:24 10° 359° (N) 1,650 ? -10.6°
Sets 20:49:30 0° 353° (N) 2,532 ? -10.9°
